Daily Summary for October 19, 2020 Units:  English    Metric   Both
Daily Weekly Monthly Yearly
  High: Low: Average:
Temperature: 69.8 °F 49.8 °F 58.3 °F
Dew Point: 49.8 °F 44.2 °F 47.5 °F
Humidity: 89% 44.1% 69%
Wind Speed: 7.2mph 0mph 2.9mph
Wind Gust: 17mph - -
Wind- - SSE
Pressure: 30 in 29.9 in -
Precipitation: 0 in    
 
 
Tabular Data for October 19, 2020
Time Temperature Dew Point Pressure Wind Wind Speed Wind Gust Humidity Rainfall Rate (Hourly) solar
00:04 53.2 °F 48.7 °F 29.9 in ESE 2 mph 7 mph 85% 0 in 0 W/m2
00:09 52.9 °F 48.7 °F 29.9 in ESE 2 mph 9 mph 85.5% 0 in 0 W/m2
00:14 52.7 °F 48.4 °F 29.9 in ESE 2.8 mph 9 mph 85.3% 0 in 0 W/m2
00:19 52.7 °F 48.6 °F 29.9 in ESE 4 mph 9 mph 86% 0 in 0 W/m2
00:24 52.5 °F 48.4 °F 29.9 in ESE 3.4 mph 9 mph 86% 0 in 0 W/m2
00:29 52.3 °F 48.2 °F 29.9 in ESE 3 mph 8 mph 86% 0 in 0 W/m2
00:34 52.2 °F 48.2 °F 29.9 in ESE 3 mph 8 mph 86% 0 in 0 W/m2
00:39 52.2 °F 48 °F 29.9 in ESE 3 mph 9 mph 86% 0 in 0 W/m2
00:44 52.2 °F 48 °F 29.9 in ESE 3 mph 9 mph 86% 0 in 0 W/m2
00:49 52 °F 47.8 °F 29.9 in ESE 3 mph 9 mph 86% 0 in 0 W/m2
00:54 52 °F 47.8 °F 29.9 in ESE 3.8 mph 10 mph 86% 0 in 0 W/m2
00:59 51.8 °F 47.7 °F 29.9 in ESE 3.2 mph 10 mph 86% 0 in 0 W/m2
01:04 51.6 °F 47.8 °F 29.9 in ESE 3 mph 10 mph 86.9% 0 in 0 W/m2
01:09 51.4 °F 47.8 °F 29.9 in ESE 3 mph 7 mph 87% 0 in 0 W/m2
01:14 51.4 °F 47.7 °F 29.9 in ESE 3 mph 7 mph 87% 0 in 0 W/m2
01:19 51.4 °F 47.7 °F 29.9 in SE 2.2 mph 7 mph 87% 0 in 0 W/m2
01:24 51.3 °F 47.5 °F 29.9 in ESE 2 mph 7 mph 87% 0 in 0 W/m2
01:29 51.1 °F 47.5 °F 29.9 in ESE 2.8 mph 7 mph 87% 0 in 0 W/m2
01:34 51.1 °F 47.3 °F 29.9 in ESE 3 mph 7 mph 87% 0 in 0 W/m2
01:39 51.1 °F 47.5 °F 29.9 in ESE 2.4 mph 7 mph 87.4% 0 in 0 W/m2
01:44 50.9 °F 47.3 °F 29.9 in ESE 2 mph 7 mph 87.5% 0 in 0 W/m2
01:49 50.7 °F 47.5 °F 29.9 in ESE 2 mph 6 mph 88% 0 in 0 W/m2
01:54 50.7 °F 47.3 °F 29.9 in ESE 2 mph 6 mph 88% 0 in 0 W/m2
01:59 50.7 °F 47.3 °F 29.9 in ESE 2 mph 6 mph 88% 0 in 0 W/m2
02:04 50.7 °F 47.3 °F 29.9 in ESE 2 mph 6 mph 88% 0 in 0 W/m2
02:09 50.5 °F 47.1 °F 29.9 in ESE 1.2 mph 6 mph 88% 0 in 0 W/m2
02:14 50.5 °F 47.1 °F 29.9 in ESE 1 mph 6 mph 88% 0 in 0 W/m2
02:19 50.5 °F 47.1 °F 29.9 in ESE 1.4 mph 6 mph 88% 0 in 0 W/m2
02:24 50.7 °F 47.3 °F 29.9 in ESE 2 mph 6 mph 88% 0 in 0 W/m2
02:29 50.7 °F 47.3 °F 29.9 in ESE 1.8 mph 6 mph 88% 0 in 0 W/m2
02:34 50.9 °F 47.3 °F 29.9 in ESE 1.4 mph 4 mph 87.4% 0 in 0 W/m2
02:39 50.9 °F 47.1 °F 29.9 in ESE 1 mph 4 mph 87% 0 in 0 W/m2
02:44 50.7 °F 47.1 °F 29.9 in East 1.8 mph 6 mph 87% 0 in 0 W/m2
02:49 50.7 °F 46.9 °F 29.9 in ESE 2 mph 6 mph 87% 0 in 0 W/m2
02:54 50.7 °F 46.9 °F 29.9 in SE 2 mph 6 mph 87% 0 in 0 W/m2
02:59 50.5 °F 46.8 °F 29.9 in SE 1 mph 5 mph 87% 0 in 0 W/m2
03:04 50.4 °F 46.8 °F 29.9 in SE 1 mph 5 mph 87% 0 in 0 W/m2
03:09 50.4 °F 46.8 °F 29.9 in ESE 1 mph 4 mph 87.6% 0 in 0 W/m2
03:14 50.2 °F 46.8 °F 29.9 in SE 1 mph 2 mph 88% 0 in 0 W/m2
03:19 50.2 °F 46.8 °F 29.9 in SE 1 mph 2 mph 88% 0 in 0 W/m2
03:24 50 °F 46.6 °F 29.9 in Calm   2 mph 88% 0 in 0 W/m2
03:29 49.8 °F 46.6 °F 29.9 in SE 0.4 mph 3 mph 88.2% 0 in 0 W/m2
03:34 49.8 °F 46.8 °F 29.9 in SE 1 mph 3 mph 89% 0 in 0 W/m2
03:39 50 °F 46.8 °F 29.9 in SSE 1 mph 3 mph 89% 0 in 0 W/m2
03:44 50 °F 46.9 °F 29.9 in SSE 1 mph 4 mph 89% 0 in 0 W/m2
03:49 50.4 °F 47.3 °F 29.9 in South 1 mph 4 mph 89% 0 in 0 W/m2
03:54 50.5 °F 47.5 °F 29.9 in SSW 2 mph 4 mph 89% 0 in 0 W/m2
03:59 50.7 °F 47.5 °F 29.9 in SSW 1.8 mph 4 mph 88.3% 0 in 0 W/m2
04:04 50.7 °F 47.5 °F 29.9 in SSW 1.6 mph 4 mph 88% 0 in 0 W/m2
04:09 50.9 °F 47.5 °F 29.9 in SSW 0.8 mph 4 mph 88% 0 in 0 W/m2
04:14 51.1 °F 47.7 °F 29.9 in SSW 0.2 mph 3 mph 88% 0 in 0 W/m2
04:19 51.3 °F 47.7 °F 29.9 in SSW 1 mph 3 mph 87.4% 0 in 0 W/m2
04:24 51.3 °F 47.7 °F 29.9 in SSW 1.4 mph 3 mph 87% 0 in 0 W/m2
04:29 51.4 °F 47.7 °F 29.9 in SSW 1.2 mph 3 mph 87% 0 in 0 W/m2
04:34 51.4 °F 47.7 °F 29.9 in SSW 0.8 mph 3 mph 87% 0 in 0 W/m2
04:39 51.4 °F 47.8 °F 29.9 in Calm   2 mph 87% 0 in 0 W/m2
04:44 51.4 °F 47.8 °F 29.9 in SSW 0.8 mph 3 mph 87% 0 in 0 W/m2
04:49 51.6 °F 47.8 °F 29.9 in SSW 1.6 mph 4 mph 87% 0 in 0 W/m2
04:54 51.6 °F 47.8 °F 29.9 in SSW 2 mph 4 mph 87% 0 in 0 W/m2
04:59 51.6 °F 48 °F 29.9 in SSW 2 mph 4 mph 87% 0 in 0 W/m2
05:04 51.6 °F 48 °F 29.9 in SSW 1.6 mph 5 mph 87% 0 in 0 W/m2
05:09 51.6 °F 48 °F 29.9 in SSW 2 mph 5 mph 87% 0 in 0 W/m2
05:14 51.6 °F 47.8 °F 29.9 in SSW 2 mph 5 mph 87% 0 in 0 W/m2
05:19 51.6 °F 47.8 °F 29.9 in SSW 1.4 mph 4 mph 87% 0 in 0 W/m2
05:24 51.6 °F 47.8 °F 29.9 in SSW 1 mph 4 mph 87% 0 in 0 W/m2
05:29 51.6 °F 48 °F 29.9 in SSW 1 mph 3 mph 87.2% 0 in 0 W/m2
05:34 51.6 °F 47.8 °F 29.9 in SSW 1 mph 3 mph 87% 0 in 0 W/m2
05:39 51.6 °F 48 °F 29.9 in SSW 0.8 mph 3 mph 87% 0 in 0 W/m2
05:44 51.8 °F 48 °F 29.9 in Calm   2 mph 87% 0 in 0 W/m2
05:49 51.8 °F 48 °F 29.9 in SSW 0.4 mph 3 mph 87% 0 in 0 W/m2
05:54 51.8 °F 48.2 °F 29.9 in SSW 1 mph 3 mph 87% 0 in 0 W/m2
05:59 51.8 °F 48 °F 30 in SSW 1 mph 3 mph 86.6% 0 in 0 W/m2
06:04 51.8 °F 47.8 °F 30 in SSW 1 mph 3 mph 86.2% 0 in 0 W/m2
06:09 52 °F 47.8 °F 30 in SSW 1 mph 3 mph 86% 0 in 0 W/m2
06:14 52 °F 47.8 °F 30 in SSW 1 mph 3 mph 86% 0 in 0 W/m2
06:19 52 °F 47.8 °F 30 in SSW 1 mph 3 mph 86% 0 in 0 W/m2
06:24 52 °F 48 °F 30 in Calm   2 mph 86.3% 0 in 5 W/m2
06:29 51.8 °F 48.2 °F 30 in Calm   2 mph 87% 0 in 9 W/m2
06:34 51.8 °F 48.2 °F 30 in Calm   1 mph 87% 0 in 14 W/m2
06:39 51.8 °F 48 °F 30 in Calm   2 mph 87% 0 in 18 W/m2
06:44 51.8 °F 48 °F 30 in Calm   2 mph 87% 0 in 25 W/m2
06:49 51.8 °F 48.2 °F 30 in Calm   2 mph 87.5% 0 in 32 W/m2
06:54 51.8 °F 48.4 °F 30 in Calm     88% 0 in 44 W/m2
06:59 51.8 °F 48.4 °F 30 in Calm   1 mph 88% 0 in 46 W/m2
07:04 51.8 °F 48.4 °F 30 in Calm   1 mph 87.7% 0 in 47 W/m2
07:09 52.2 °F 48.7 °F 30 in Calm   2 mph 87.8% 0 in 53 W/m2
07:14 52.3 °F 48.7 °F 30 in SW 1 mph 3 mph 87.3% 0 in 81 W/m2
07:19 52.5 °F 48.6 °F 30 in NW 1 mph 3 mph 86.3% 0 in 118 W/m2
07:24 52.9 °F 48.9 °F 30 in NE 1.6 mph 7 mph 86.2% 0 in 281 W/m2
07:29 53.2 °F 48.7 °F 30 in NE 2.2 mph 7 mph 84.7% 0 in 292 W/m2
07:34 53.6 °F 48.7 °F 30 in NE 2.6 mph 7 mph 83.4% 0 in 292 W/m2
07:39 54 °F 48.6 °F 30 in NE 2.2 mph 6 mph 82.2% 0 in 283 W/m2
07:44 54 °F 48.6 °F 30 in ENE 2 mph 6 mph 81.8% 0 in 287 W/m2
07:49 54 °F 48.4 °F 30 in NE 2.4 mph 6 mph 81.4% 0 in 246 W/m2
07:54 53.8 °F 48 °F 30 in NE 3 mph 8 mph 80.5% 0 in 339 W/m2
07:59 54 °F 48 °F 30 in NE 4 mph 9 mph 80.5% 0 in 357 W/m2
08:04 54 °F 47.8 °F 30 in NE 4.2 mph 11 mph 79.7% 0 in 378 W/m2
08:09 54 °F 48 °F 30 in NE 4.6 mph 11 mph 80% 0 in 394 W/m2
08:14 54.5 °F 48 °F 30 in NE 3.6 mph 11 mph 78.8% 0 in 411 W/m2
08:19 54.3 °F 47.8 °F 30 in NE 3 mph 8 mph 78.7% 0 in 429 W/m2
08:24 54.3 °F 47.7 °F 30 in NE 3.6 mph 8 mph 78.4% 0 in 582 W/m2
08:29 54.5 °F 48 °F 30 in NE 4 mph 8 mph 78.4% 0 in 582 W/m2
08:34 54.5 °F 47.8 °F 30 in NE 3.8 mph 8 mph 78.2% 0 in 295 W/m2
08:39 54.5 °F 47.5 °F 30 in NE 3 mph 8 mph 77.3% 0 in 227 W/m2
08:44 54.3 °F 47.8 °F 30 in NE 2 mph 5 mph 78.3% 0 in 236 W/m2
08:49 54.7 °F 48.2 °F 30 in ENE 2 mph 5 mph 78.8% 0 in 230 W/m2
08:54 54.5 °F 47.8 °F 30 in ENE 2.6 mph 5 mph 77.9% 0 in 211 W/m2
08:59 54.7 °F 47.7 °F 30 in ENE 2 mph 5 mph 77.6% 0 in 255 W/m2
09:04 54.9 °F 47.8 °F 30 in NE 2 mph 5 mph 77.5% 0 in 322 W/m2
09:09 55.6 °F 48.4 °F 30 in NE 2.4 mph 5 mph 77.2% 0 in 663 W/m2
09:14 55.8 °F 48 °F 30 in NE 2.6 mph 5 mph 75.5% 0 in 236 W/m2
09:19 55.4 °F 48 °F 30 in NE 2.6 mph 7 mph 76% 0 in 745 W/m2
09:24 55.9 °F 48.2 °F 30 in NE 2.6 mph 7 mph 74.9% 0 in 752 W/m2
09:29 57.4 °F 49.1 °F 30 in NE 2.2 mph 7 mph 73.9% 0 in 786 W/m2
09:34 57.9 °F 49.1 °F 30 in NE 2.8 mph 7 mph 72.7% 0 in 803 W/m2
09:39 58.6 °F 49.6 °F 30 in ENE 3 mph 7 mph 71.8% 0 in 817 W/m2
09:44 59 °F 49.3 °F 30 in ENE 3 mph 7 mph 70.2% 0 in 824 W/m2
09:49 59 °F 48.6 °F 30 in ENE 3 mph 7 mph 68.3% 0 in 867 W/m2
09:54 58.1 °F 47.8 °F 30 in NE 3 mph 6 mph 68.8% 0 in 867 W/m2
09:59 56.8 °F 47.8 °F 30 in NNE 3 mph 6 mph 71.5% 0 in 274 W/m2
10:04 56.7 °F 47.7 °F 30 in NNE 2.4 mph 5 mph 71.9% 0 in 506 W/m2
10:09 58.3 °F 48.7 °F 30 in NNE 2.6 mph 8 mph 70.9% 0 in 930 W/m2
10:14 59.9 °F 49.6 °F 30 in NE 3 mph 8 mph 69.1% 0 in 868 W/m2
10:19 60.6 °F 49.1 °F 30 in NE 3 mph 8 mph 65.9% 0 in 891 W/m2
10:24 60.8 °F 47.8 °F 30 in NE 3.2 mph 7 mph 62.5% 0 in 930 W/m2
10:29 60.6 °F 47.7 °F 30 in NE 3.8 mph 7 mph 62.5% 0 in 946 W/m2
10:34 61.2 °F 48 °F 30 in ENE 3.2 mph 7 mph 62% 0 in 954 W/m2
10:39 61.7 °F 47.3 °F 30 in East 3 mph 7 mph 59.1% 0 in 998 W/m2
10:44 62.1 °F 47.3 °F 30 in ENE 2.4 mph 6 mph 58.7% 0 in 1013 W/m2
10:49 61.3 °F 47.1 °F 30 in NNE 3 mph 6 mph 59.4% 0 in 1049 W/m2
10:54 62.2 °F 47.5 °F 30 in NNE 3 mph 8 mph 58.7% 0 in 1046 W/m2
10:59 62.6 °F 47.1 °F 30 in North 3 mph 8 mph 57.1% 0 in 1144 W/m2
11:04 63.5 °F 48 °F 30 in North 2.8 mph 8 mph 57.3% 0 in 1278 W/m2
11:09 64.2 °F 48 °F 30 in NNE 2 mph 6 mph 55.6% 0 in 1206 W/m2
11:14 64.4 °F 46.9 °F 30 in NE 2 mph 6 mph 53.1% 0 in 1136 W/m2
11:19 63.7 °F 45.7 °F 30 in NE 2 mph 6 mph 52% 0 in 438 W/m2
11:24 62.2 °F 44.2 °F 30 in NE 2 mph 4 mph 52% 0 in 427 W/m2
11:29 61.5 °F 45.3 °F 30 in NNE 2 mph 4 mph 55.2% 0 in 427 W/m2
11:34 61 °F 45.5 °F 30 in NNW 2 mph 4 mph 56.8% 0 in 396 W/m2
11:39 60.6 °F 45.1 °F 30 in WNW 1.8 mph 4 mph 56.7% 0 in 367 W/m2
11:44 60.6 °F 45.1 °F 30 in WNW 1 mph 6 mph 56.7% 0 in 336 W/m2
11:49 60.8 °F 45.3 °F 30 in WNW 1.4 mph 6 mph 56.8% 0 in 341 W/m2
11:54 61.5 °F 45.1 °F 30 in WSW 1.8 mph 6 mph 54.8% 0 in 364 W/m2
11:59 62.1 °F 46.2 °F 30 in SSE 1 mph 5 mph 56.3% 0 in 404 W/m2
12:04 61.9 °F 46 °F 30 in SSE 1 mph 3 mph 56.2% 0 in 392 W/m2
12:09 62.4 °F 46.2 °F 30 in SSE 1 mph 3 mph 55.5% 0 in 371 W/m2
12:11 61.5 °F 46 °F 30 in SE 1 mph 5 mph 56.8% 0 in 387 W/m2
12:19 62.1 °F 47.5 °F 30 in South 2 mph 6 mph 59% 0 in 570 W/m2
12:24 62.1 °F 46 °F 30 in SSW 2 mph 7 mph 55.9% 0 in 1107 W/m2
12:29 62.2 °F 46.2 °F 30 in SSW 3 mph 7 mph 55.7% 0 in 1387 W/m2
12:34 63.1 °F 46.9 °F 30 in WSW 2.4 mph 7 mph 55.5% 0 in 473 W/m2
12:39 62.2 °F 45.5 °F 30 in NW 2 mph 7 mph 54.3% 0 in 381 W/m2
12:44 61.2 °F 45.7 °F 30 in NW 2 mph 7 mph 56.5% 0 in 424 W/m2
12:49 62.6 °F 47.3 °F 30 in NW 2 mph 7 mph 57.1% 0 in 392 W/m2
12:54 63 °F 47.3 °F 30 in NW 1.8 mph 4 mph 56.7% 0 in 392 W/m2
12:59 62.2 °F 46 °F 30 in NW 2 mph 7 mph 55.3% 0 in 1183 W/m2
13:04 62.6 °F 46.4 °F 30 in NW 2 mph 7 mph 55.6% 0 in 1183 W/m2
13:09 64.9 °F 47.8 °F 30 in NW 2.4 mph 7 mph 53.8% 0 in 1097 W/m2
13:14 64.9 °F 46 °F 30 in NNW 3 mph 9 mph 50.3% 0 in 1053 W/m2
13:19 64.8 °F 46.8 °F 30 in North 3 mph 9 mph 52.1% 0 in 1046 W/m2
13:24 66.9 °F 47.7 °F 30 in North 2.4 mph 9 mph 50% 0 in 1042 W/m2
13:29 66 °F 46.2 °F 30 in NNE 2.2 mph 9 mph 48.9% 0 in 1030 W/m2
13:34 66 °F 46.4 °F 30 in NNE 2.4 mph 9 mph 49.4% 0 in 1018 W/m2
13:39 67.3 °F 46.8 °F 30 in NNE 2 mph 9 mph 47.8% 0 in 1000 W/m2
13:44 65.5 °F 45.7 °F 30 in North 2.2 mph 6 mph 48.7% 0 in 984 W/m2
13:49 65.7 °F 46.8 °F 30 in NNW 3 mph 6 mph 50.4% 0 in 977 W/m2
13:54 66.7 °F 46.2 °F 30 in North 2 mph 6 mph 47.4% 0 in 972 W/m2
13:59 68.5 °F 46.9 °F 30 in ENE 2.2 mph 12 mph 46.3% 0 in 1014 W/m2
14:04 68.2 °F 46.2 °F 30 in NNE 3.8 mph 12 mph 45.5% 0 in 1014 W/m2
14:09 67.6 °F 45.9 °F 30 in NNE 5.4 mph 14 mph 45.4% 0 in 997 W/m2
14:14 67.1 °F 45.9 °F 30 in NNE 5 mph 14 mph 46.6% 0 in 940 W/m2
14:19 66.7 °F 45.7 °F 30 in North 4.4 mph 14 mph 46.7% 0 in 925 W/m2
14:24 66.9 °F 46.2 °F 30 in NNW 4.2 mph 12 mph 47.1% 0 in 921 W/m2
14:29 66.6 °F 46.6 °F 30 in NNW 4.6 mph 12 mph 48.4% 0 in 900 W/m2
14:34 67.1 °F 47.8 °F 30 in NW 5 mph 12 mph 50.1% 0 in 895 W/m2
14:39 66.4 °F 46.9 °F 30 in NW 5 mph 11 mph 49.5% 0 in 884 W/m2
14:44 68 °F 48.6 °F 30 in NNW 4.4 mph 11 mph 49.8% 0 in 877 W/m2
14:49 67.6 °F 47.5 °F 30 in NW 3 mph 10 mph 48.6% 0 in 884 W/m2
14:54 67.3 °F 48 °F 30 in NW 4.2 mph 11 mph 49.8% 0 in 872 W/m2
14:59 66.9 °F 46.8 °F 30 in NW 5 mph 11 mph 48.4% 0 in 835 W/m2
15:04 68 °F 47.7 °F 29.9 in NW 4.2 mph 11 mph 48.2% 0 in 819 W/m2
15:09 67.8 °F 46.2 °F 29.9 in NNW 4.4 mph 11 mph 46% 0 in 809 W/m2
15:14 68.4 °F 45.9 °F 29.9 in North 5.2 mph 11 mph 44.5% 0 in 789 W/m2
15:19 68.9 °F 48.2 °F 29.9 in NNE 5 mph 12 mph 47.6% 0 in 775 W/m2
15:24 68.7 °F 47.7 °F 29.9 in NNE 5 mph 12 mph 47.1% 0 in 763 W/m2
15:29 68.9 °F 47.8 °F 29.9 in NNE 4.8 mph 12 mph 46.8% 0 in 751 W/m2
15:34 68.5 °F 47.1 °F 29.9 in North 5 mph 12 mph 46.3% 0 in 737 W/m2
15:39 67.8 °F 46.6 °F 29.9 in NNW 5.6 mph 16 mph 46.4% 0 in 717 W/m2
15:44 67.3 °F 45.5 °F 29.9 in NW 7 mph 16 mph 45.6% 0 in 705 W/m2
15:49 67.5 °F 45.9 °F 29.9 in NNW 6.8 mph 16 mph 46% 0 in 689 W/m2
15:54 67.3 °F 46.4 °F 29.9 in NNW 6 mph 15 mph 47.2% 0 in 673 W/m2
15:59 67.6 °F 46.4 °F 29.9 in NNW 6 mph 15 mph 46.3% 0 in 661 W/m2
16:04 68.9 °F 46.4 °F 29.9 in North 5.4 mph 15 mph 44.5% 0 in 645 W/m2
16:09 68.9 °F 46.2 °F 29.9 in NNE 5.8 mph 12 mph 44.1% 0 in 631 W/m2
16:14 69.6 °F 47.5 °F 29.9 in NNE 6 mph 12 mph 45.2% 0 in 612 W/m2
16:19 69.8 °F 47.5 °F 29.9 in NNE 6 mph 13 mph 44.9% 0 in 594 W/m2
16:24 69.1 °F 47.3 °F 29.9 in NNE 6.4 mph 13 mph 45.7% 0 in 578 W/m2
16:29 68.4 °F 46.9 °F 29.9 in North 7.2 mph 13 mph 46.3% 0 in 564 W/m2
16:34 68 °F 47.3 °F 29.9 in NNW 6.4 mph 13 mph 47.5% 0 in 545 W/m2
16:39 68.9 °F 47.1 °F 29.9 in NNW 4.7 mph 13 mph 46% 0 in 527 W/m2
16:44 69.1 °F 46.9 °F 29.9 in North 4.6 mph 10 mph 45.1% 0 in 512 W/m2
16:49 68.7 °F 46.9 °F 29.9 in North 5.2 mph 10 mph 45.8% 0 in 490 W/m2
16:54 68.4 °F 47.8 °F 29.9 in North 4.8 mph 10 mph 48% 0 in 475 W/m2
16:59 69.4 °F 47.7 °F 29.9 in North 4.8 mph 10 mph 46% 0 in 461 W/m2
17:04 69.6 °F 47.5 °F 29.9 in North 5.4 mph 11 mph 45.3% 0 in 443 W/m2
17:09 68.9 °F 46.6 °F 29.9 in North 5 mph 11 mph 45% 0 in 422 W/m2
17:14 68.9 °F 47.3 °F 29.9 in North 4.4 mph 11 mph 46% 0 in 403 W/m2
17:19 68.5 °F 46.9 °F 29.9 in North 5.4 mph 12 mph 46.2% 0 in 383 W/m2
17:24 67.6 °F 46.9 °F 29.9 in NNW 6 mph 12 mph 47.4% 0 in 366 W/m2
17:29 68.5 °F 46.8 °F 29.9 in NNW 6 mph 12 mph 45.8% 0 in 345 W/m2
17:34 68.9 °F 46.6 °F 29.9 in North 5.6 mph 11 mph 44.5% 0 in 325 W/m2
17:39 68.5 °F 46.6 °F 29.9 in North 5.2 mph 11 mph 45.5% 0 in 297 W/m2
17:44 67.6 °F 46.4 °F 29.9 in North 4.4 mph 11 mph 46.3% 0 in 271 W/m2
17:49 67.5 °F 46.6 °F 29.9 in NNW 4.2 mph 10 mph 47% 0 in 244 W/m2
17:54 68.2 °F 46.6 °F 29.9 in North 4.8 mph 10 mph 46.3% 0 in 218 W/m2
17:59 67.8 °F 46.2 °F 29.9 in North 5.4 mph 10 mph 45.8% 0 in 195 W/m2
18:04 67.8 °F 46.4 °F 29.9 in North 6 mph 10 mph 46% 0 in 174 W/m2
18:09 66.9 °F 45.9 °F 29.9 in North 5 mph 10 mph 46.7% 0 in 156 W/m2
18:14 66.4 °F 45.9 °F 29.9 in NNW 5 mph 10 mph 47.5% 0 in 139 W/m2
18:19 66.6 °F 45.9 °F 29.9 in NNW 5 mph 10 mph 47.5% 0 in 121 W/m2
18:24 66.9 °F 46.8 °F 29.9 in North 4.8 mph 10 mph 48.2% 0 in 105 W/m2
18:29 67.5 °F 46.8 °F 29.9 in North 4 mph 9 mph 47.6% 0 in 91 W/m2
18:34 66.7 °F 46.8 °F 29.9 in North 4 mph 9 mph 48.4% 0 in 77 W/m2
18:39 66.2 °F 46.9 °F 29.9 in North 5 mph 9 mph 49.9% 0 in 65 W/m2
18:44 66 °F 46.9 °F 29.9 in North 4 mph 9 mph 50.5% 0 in 54 W/m2
18:49 65.1 °F 46.4 °F 29.9 in North 3.8 mph 9 mph 50.8% 0 in 40 W/m2
18:54 64.9 °F 46.6 °F 29.9 in NNW 4 mph 9 mph 51.3% 0 in 28 W/m2
18:59 64.8 °F 46.4 °F 29.9 in North 4 mph 9 mph 51.5% 0 in 19 W/m2
19:04 64.6 °F 46.4 °F 30 in North 4 mph 8 mph 51.9% 0 in 16 W/m2
19:09 64.2 °F 46.4 °F 30 in North 3 mph 8 mph 52.3% 0 in 14 W/m2
19:14 64 °F 46.2 °F 30 in North 3.8 mph 6 mph 52.2% 0 in 11 W/m2
19:19 63.5 °F 46.4 °F 30 in North 3.6 mph 6 mph 53.5% 0 in 9 W/m2
19:24 63.3 °F 46.4 °F 30 in North 3 mph 5 mph 54.2% 0 in 5 W/m2
19:29 63 °F 46.6 °F 30 in North 3 mph 5 mph 55% 0 in 0 W/m2
19:34 62.8 °F 46.8 °F 30 in North 3 mph 4 mph 55.8% 0 in 0 W/m2
19:39 62.6 °F 46.8 °F 30 in North 3 mph 4 mph 56.3% 0 in 0 W/m2
19:44 62.4 °F 46.9 °F 30 in North 2.8 mph 4 mph 57% 0 in 0 W/m2
19:49 62.2 °F 46.9 °F 30 in North 3 mph 4 mph 57.4% 0 in 0 W/m2
19:54 62.1 °F 47.1 °F 30 in North 3 mph 4 mph 58% 0 in 0 W/m2
19:59 61.9 °F 47.1 °F 30 in North 2.2 mph 4 mph 58.5% 0 in 0 W/m2
20:04 61.5 °F 47.1 °F 30 in North 2 mph 4 mph 59% 0 in 0 W/m2
20:09 61.3 °F 47.1 °F 30 in NNE 2 mph 4 mph 59.6% 0 in 0 W/m2
20:14 61 °F 46.9 °F 30 in NNE 2 mph 4 mph 60% 0 in 0 W/m2
20:19 61 °F 46.9 °F 30 in NNE 2 mph 3 mph 60% 0 in 0 W/m2
20:24 60.4 °F 47.1 °F 30 in NNE 2 mph 4 mph 61.4% 0 in 0 W/m2
20:29 59.9 °F 46.9 °F 30 in NNE 2 mph 4 mph 62.2% 0 in 0 W/m2
20:34 59.4 °F 46.9 °F 30 in NE 2 mph 4 mph 63.3% 0 in 0 W/m2
20:39 59 °F 46.9 °F 30 in NE 1.4 mph 4 mph 64% 0 in 0 W/m2
20:44 58.8 °F 46.8 °F 30 in NE 0.8 mph 3 mph 64.3% 0 in 0 W/m2
20:49 58.6 °F 46.9 °F 30 in ENE 1 mph 9 mph 65.4% 0 in 0 W/m2
20:54 57.9 °F 47.3 °F 30 in ENE 2.4 mph 10 mph 67.5% 0 in 0 W/m2
20:59 57.6 °F 48 °F 30 in ENE 4 mph 12 mph 70.4% 0 in 0 W/m2
21:04 58.1 °F 48.9 °F 30 in ENE 4.8 mph 12 mph 71.3% 0 in 0 W/m2
21:09 58.3 °F 49.3 °F 30 in ENE 4.8 mph 17 mph 72% 0 in 0 W/m2
21:14 58.1 °F 49.6 °F 30 in East 5.2 mph 17 mph 73.3% 0 in 0 W/m2
21:19 57.7 °F 49.8 °F 30 in East 6 mph 17 mph 74.8% 0 in 0 W/m2
21:24 57.2 °F 49.6 °F 30 in East 5.2 mph 13 mph 76% 0 in 0 W/m2
21:29 56.7 °F 49.5 °F 30 in East 5 mph 15 mph 77% 0 in 0 W/m2
21:34 56.1 °F 49.3 °F 30 in East 5.2 mph 15 mph 77.7% 0 in 0 W/m2
21:39 55.8 °F 48.9 °F 30 in East 6 mph 15 mph 78% 0 in 0 W/m2
21:44 55.4 °F 48.9 °F 30 in East 6 mph 14 mph 78.8% 0 in 0 W/m2
21:49 55.2 °F 48.7 °F 30 in East 6 mph 15 mph 79% 0 in 0 W/m2
21:54 55 °F 48.6 °F 30 in East 6.2 mph 15 mph 79.3% 0 in 0 W/m2
21:59 54.7 °F 48.6 °F 30 in East 6 mph 15 mph 80% 0 in 0 W/m2
22:04 54.5 °F 48.6 °F 30 in East 5.4 mph 14 mph 80.1% 0 in 0 W/m2
22:09 54.3 °F 48.6 °F 30 in East 5.6 mph 14 mph 81% 0 in 0 W/m2
22:14 54.1 °F 48.4 °F 30 in East 5 mph 11 mph 81% 0 in 0 W/m2
22:19 54 °F 48.2 °F 30 in East 4.8 mph 12 mph 81% 0 in 0 W/m2
22:24 53.6 °F 48 °F 30 in East 5.4 mph 12 mph 81.3% 0 in 0 W/m2
22:29 53.6 °F 48.2 °F 30 in East 6 mph 12 mph 82% 0 in 0 W/m2
22:34 53.4 °F 48 °F 30 in East 5.6 mph 12 mph 82% 0 in 0 W/m2
22:39 53.2 °F 47.8 °F 30 in East 5 mph 13 mph 82% 0 in 0 W/m2
22:44 53.1 °F 47.8 °F 30 in East 5.2 mph 13 mph 82.5% 0 in 0 W/m2
22:49 53.1 °F 48 °F 30 in East 4 mph 13 mph 83% 0 in 0 W/m2
22:54 53.1 °F 48 °F 30 in ESE 2.6 mph 9 mph 83% 0 in 0 W/m2
22:59 53.1 °F 48 °F 30 in SE 2.6 mph 8 mph 83% 0 in 0 W/m2
23:04 53.2 °F 48.2 °F 30 in SE 3 mph 8 mph 83% 0 in 0 W/m2
23:09 53.2 °F 48.4 °F 30 in SE 2 mph 8 mph 83% 0 in 0 W/m2
23:14 53.2 °F 48.2 °F 30 in SE 2 mph 8 mph 82.8% 0 in 0 W/m2
23:19 53.4 °F 48.2 °F 30 in SE 2.2 mph 8 mph 82.5% 0 in 0 W/m2
23:24 53.6 °F 48.2 °F 30 in SE 2.4 mph 7 mph 82% 0 in 0 W/m2
23:29 53.6 °F 48.2 °F 30 in SE 3 mph 7 mph 82% 0 in 0 W/m2
23:34 53.6 °F 48.2 °F 30 in SE 3 mph 7 mph 82% 0 in 0 W/m2
23:39 53.6 °F 48.2 °F 30 in ESE 2.4 mph 7 mph 82% 0 in 0 W/m2
23:44 53.6 °F 48.2 °F 30 in SE 3 mph 7 mph 82% 0 in 0 W/m2
23:49 53.6 °F 48.2 °F 30 in SE 2.8 mph 7 mph 82% 0 in 0 W/m2
23:54 53.6 °F 48.2 °F 30 in SE 2.2 mph 7 mph 82% 0 in 0 W/m2
23:59 53.6 °F 48.2 °F 30 in ESE 2 mph 7 mph 82% 0 in 0 W/m2
Compliments of Weather Underground - 1.25 mb

Latitude S 35° 13' 00" Longitude E 149° 01' 22" Elevation 577 m
Page updated 31/10/2020 1:45:04 AM.
Powered by Cumulus MX v3.2.0 (3056)